Weather History for LHKE - October, 2011

Change the Weather History Date:

Sunday, October 30, 2011

  Actual Average (LHBP) Record (LHBP)
Temperature  
Mean Temperature 44 °F -  
Max Temperature 59 °F 54 °F 68 °F (2004)
Min Temperature 30 °F 36 °F 14 °F (1997)
Degree Days  
Heating Degree Days 20    
Moisture  
Dew Point 37 °F    
Average Humidity 78    
Maximum Humidity 100    
Minimum Humidity 45    
Precipitation  
Precipitation 0.00 in - - ()
Sea Level Pressure  
Sea Level Pressure 30.29 in    
Wind  
Wind Speed 2 mph ()    
Max Wind Speed 9 mph    
Max Gust Speed -    
Visibility 2.5 miles    
Events Fog    
Averages and records for this station are not official NWS values.
T = Trace of Precipitation, MM = Missing Value Source: Averaged Metar Reports

Daily Weather History Graph

Daily Weather History Graph

Search for Another Location

Airport or City:

Trip Planner

Search our weather history database for the weather conditions in past years. The results will help you decide how hot, cold, wet, or windy it might be!

Date:

Astronomy

Oct. 30, 2011 Rise Set
Actual Time 6:19 AM CET 4:28 PM CET
Civil Twilight 5:48 AM CET 5:00 PM CET
Nautical Twilight 5:12 AM CET 5:36 PM CET
Astronomical Twilight 4:37 AM CET 6:11 PM CET
Moon 10:34 AM CET (10/30) 7:25 PM CET (10/30)
Length of Visible Light 11h 12m
Length of Day
10h 09m
Waxing Crescent, 18% of the Moon is Illuminated
Oct 30
Waxing Crescent
Nov 2
First Quarter
Nov 10
Full
Nov 18
Last Quarter
Nov 25
New

Hourly Weather History & Observations

Time (CET) Temp. Windchill Dew Point Humidity Pressure Visibility Wind Dir Wind Speed Gust Speed Precip Events Conditions
12:15 AM 37.4 °F - 37.4 °F 100% 30.33 in 2.5 mi Calm Calm - N/A   Scattered Clouds
12:45 AM - - - N/A% - 1.9 mi North - - N/A Fog Fog
1:15 AM 39.2 °F - 37.4 °F 93% 30.33 in 2.5 mi Calm Calm - N/A   Mostly Cloudy
1:45 AM 39.2 °F - 37.4 °F 93% 30.33 in 2.5 mi Calm Calm - N/A   Mostly Cloudy
2:15 AM 39.2 °F - 37.4 °F 93% 30.33 in 2.5 mi Calm Calm - N/A   Mostly Cloudy
2:45 AM 37.4 °F - 35.6 °F 93% 30.33 in 2.5 mi Calm Calm - N/A   Scattered Clouds
2:15 AM 37.4 °F - 35.6 °F 93% 30.33 in 2.2 mi Calm Calm - N/A   Scattered Clouds
2:45 AM 33.8 °F - 33.8 °F 100% 30.33 in 2.2 mi Calm Calm - N/A   Scattered Clouds
3:15 AM 35.6 °F - 33.8 °F 93% 30.33 in 1.9 mi Calm Calm - N/A   Scattered Clouds
3:45 AM 33.8 °F - 32.0 °F 93% 30.30 in 1.9 mi Calm Calm - N/A   Partly Cloudy
4:15 AM 32.0 °F - 30.2 °F 93% 30.30 in 1.9 mi Calm Calm - N/A   Partly Cloudy
4:45 AM 32.0 °F - 32.0 °F 100% 30.30 in 1.9 mi Calm Calm - N/A Fog Shallow Fog
5:15 AM 32.0 °F - 32.0 °F 100% 30.30 in 1.6 mi NE 2.2 mph - N/A Fog Shallow Fog
5:45 AM - - - N/A% - 1.9 mi Variable 4.5 mph - N/A Fog Fog
6:15 AM 30.2 °F - 30.2 °F 100% 30.30 in 1.9 mi Calm Calm - N/A Fog Shallow Fog
6:45 AM 32.0 °F - 32.0 °F 100% 30.30 in 1.9 mi Calm Calm - N/A   Partly Cloudy
7:15 AM 30.2 °F - 30.2 °F 100% 30.33 in 1.9 mi Calm Calm - N/A Fog Shallow Fog
7:45 AM 35.6 °F - 33.8 °F 93% 30.33 in 1.9 mi Calm Calm - N/A   Partly Cloudy
8:15 AM 41.0 °F - 41.0 °F 100% 30.33 in 2.5 mi Calm Calm - N/A   Partly Cloudy
8:45 AM 46.4 °F 43.0 °F 41.0 °F 81% 30.33 in 5.0 mi SSE 6.7 mph - N/A   Unknown
9:45 AM 50.0 °F - 41.0 °F 71% 30.33 in 5.0 mi SSE 8.9 mph - N/A   Unknown
10:15 AM 51.8 °F - 41.0 °F 67% 30.33 in - South 6.7 mph - N/A   Clear
10:45 AM 53.6 °F - 41.0 °F 62% 30.33 in - South 6.7 mph - N/A   Clear
11:15 AM 55.4 °F - 39.2 °F 54% 30.30 in - South 6.7 mph - N/A   Clear
11:45 AM - - - N/A% - 3.7 mi SSE 6.7 mph - N/A   Clear
12:15 PM 57.2 °F - 37.4 °F 48% 30.30 in - SSE 6.7 mph - N/A   Clear
12:45 PM 59.0 °F - 37.4 °F 45% 30.30 in - SSE 6.7 mph - N/A   Clear
1:15 PM 59.0 °F - 37.4 °F 45% 30.27 in - South 4.5 mph - N/A   Clear
1:45 PM 57.2 °F - 37.4 °F 48% 30.27 in - SSE 6.7 mph - N/A   Clear
2:15 PM 57.2 °F - 37.4 °F 48% 30.27 in - SE 6.7 mph - N/A   Clear
2:45 PM - - - N/A% - 1.9 mi SSE 6.7 mph - N/A   Clear
3:15 PM 55.4 °F - 37.4 °F 51% 30.24 in - SSE 6.7 mph - N/A   Clear
3:45 PM 55.4 °F - 37.4 °F 51% 30.24 in - SE 6.7 mph - N/A   Clear
4:15 PM 53.6 °F - 39.2 °F 58% 30.24 in - SE 4.5 mph - N/A   Clear
4:45 PM 51.8 °F - 37.4 °F 58% 30.24 in 5.0 mi SE 4.5 mph - N/A   Unknown
5:15 PM 50.0 °F - 39.2 °F 66% 30.24 in - ESE 2.2 mph - N/A   Clear
5:45 PM - - - N/A% - 1.9 mi Variable 4.5 mph - N/A Fog Shallow Fog
6:15 PM 48.2 °F - 39.2 °F 71% 30.24 in - ESE 4.5 mph - N/A   Clear
6:45 PM 48.2 °F - 41.0 °F 76% 30.24 in - SE 2.2 mph - N/A   Clear
7:15 PM 46.4 °F 44.4 °F 39.2 °F 76% 30.24 in - ESE 4.5 mph - N/A   Clear
7:45 PM 48.2 °F - 39.2 °F 71% 30.24 in - ESE 2.2 mph - N/A   Clear
8:15 PM 46.4 °F - 39.2 °F 76% 30.27 in - Calm Calm - N/A   Clear
8:45 PM - - - N/A% - 1.9 mi Variable 4.5 mph - N/A Fog Shallow Fog
9:15 PM 44.6 °F - 39.2 °F 81% 30.24 in - Calm Calm - N/A   Clear
9:45 PM 46.4 °F - 41.0 °F 81% 30.24 in - Calm Calm - N/A   Clear
10:15 PM 44.6 °F - 41.0 °F 87% 30.24 in - Calm Calm - N/A   Clear
10:45 PM 44.6 °F - 39.2 °F 81% 30.24 in - Calm Calm - N/A   Clear